Time,TemperatureF,DewpointF,PressureIn,WindDirection,WindDirectionDegrees,WindSpeedMPH,WindSpeedGustMPH,Humidity,HourlyPrecipIn,Conditions,Clouds,dailyrainin,SolarRadiationWatts/m^2,SoftwareType,DateUTC
2013-02-02 00:01:00,25.0,24.0,-100.00,SSW,208,2.0,8.0,96,0.00,,,0.00,0.000000,,2013-02-02 07:01:00,
2013-02-02 00:32:00,24.0,23.0,-100.00,WSW,249,0.0,7.0,97,0.00,,,0.00,0.000000,,2013-02-02 07:32:00,
2013-02-02 00:42:00,24.0,23.0,-100.00,WSW,249,0.0,7.0,97,0.00,,,0.00,0.000000,,2013-02-02 07:42:00,
2013-02-02 00:51:00,24.0,23.0,-100.00,WSW,249,0.0,7.0,97,0.00,,,0.00,0.000000,,2013-02-02 07:51:00,
2013-02-02 01:01:00,24.0,23.0,-100.00,WSW,249,0.0,7.0,97,0.00,,,0.00,0.000000,,2013-02-02 08:01:00,
2013-02-02 01:32:00,23.0,23.0,-100.00,SW,231,1.0,3.0,98,0.00,,,0.00,0.000000,,2013-02-02 08:32:00,
2013-02-02 01:42:00,23.0,23.0,-100.00,SW,231,1.0,3.0,98,0.00,,,0.00,0.000000,,2013-02-02 08:42:00,
2013-02-02 01:53:00,23.0,23.0,-100.00,SW,231,1.0,3.0,98,0.00,,,0.00,0.000000,,2013-02-02 08:53:00,
2013-02-02 02:01:00,23.0,23.0,-100.00,SW,231,1.0,3.0,98,0.00,,,0.00,0.000000,,2013-02-02 09:01:00,
2013-02-02 02:32:00,24.0,24.0,-100.00,WSW,238,1.0,5.0,99,0.00,,,0.00,0.000000,,2013-02-02 09:32:00,
2013-02-02 02:42:00,24.0,24.0,-100.00,WSW,238,1.0,5.0,99,0.00,,,0.00,0.000000,,2013-02-02 09:42:00,
2013-02-02 02:52:00,24.0,24.0,-100.00,WSW,238,1.0,5.0,99,0.00,,,0.00,0.000000,,2013-02-02 09:52:00,
2013-02-02 03:01:00,24.0,24.0,-100.00,WSW,238,1.0,5.0,99,0.00,,,0.00,0.000000,,2013-02-02 10:01:00,
2013-02-02 03:32:00,24.0,24.0,-100.00,SSW,200,1.0,4.0,99,0.00,,,0.00,0.000000,,2013-02-02 10:32:00,
2013-02-02 03:42:00,24.0,24.0,-100.00,SSW,200,1.0,4.0,99,0.00,,,0.00,0.000000,,2013-02-02 10:42:00,
2013-02-02 03:52:00,24.0,24.0,-100.00,SSW,200,1.0,4.0,99,0.00,,,0.00,0.000000,,2013-02-02 10:52:00,
2013-02-02 04:01:00,24.0,24.0,-100.00,SSW,200,1.0,4.0,99,0.00,,,0.00,0.000000,,2013-02-02 11:01:00,
2013-02-02 04:32:00,23.0,23.0,-100.00,SW,214,1.0,5.0,98,0.00,,,0.00,0.000000,,2013-02-02 11:32:00,
2013-02-02 04:42:00,23.0,23.0,-100.00,SW,214,1.0,5.0,98,0.00,,,0.00,0.000000,,2013-02-02 11:42:00,
2013-02-02 04:52:00,23.0,23.0,-100.00,SW,214,1.0,5.0,98,0.00,,,0.00,0.000000,,2013-02-02 11:52:00,
2013-02-02 05:01:00,23.0,23.0,-100.00,SW,214,1.0,5.0,98,0.00,,,0.00,0.000000,,2013-02-02 12:01:00,
2013-02-02 05:32:00,23.0,23.0,-100.00,SW,228,0.0,4.0,99,0.00,,,0.00,0.000000,,2013-02-02 12:32:00,
2013-02-02 05:42:00,23.0,23.0,-100.00,SW,228,0.0,4.0,99,0.00,,,0.00,0.000000,,2013-02-02 12:42:00,
2013-02-02 05:52:00,23.0,23.0,-100.00,SW,228,0.0,4.0,99,0.00,,,0.00,0.000000,,2013-02-02 12:52:00,
2013-02-02 06:02:00,23.0,23.0,-100.00,SW,228,0.0,4.0,99,0.00,,,0.00,0.000000,,2013-02-02 13:02:00,
2013-02-02 06:22:00,23.0,23.0,-100.00,SSW,196,1.0,4.0,100,-99.99,,,0.00,0.000000,,2013-02-02 13:22:00,
2013-02-02 06:33:00,23.0,23.0,-100.00,SSW,196,1.0,4.0,100,-99.99,,,0.00,0.000000,,2013-02-02 13:33:00,
2013-02-02 06:42:00,23.0,23.0,-100.00,SSW,196,1.0,4.0,100,-99.99,,,0.00,0.000000,,2013-02-02 13:42:00,
2013-02-02 06:52:00,23.0,23.0,-100.00,SSW,196,1.0,4.0,100,-99.99,,,0.00,0.000000,,2013-02-02 13:52:00,
2013-02-02 07:01:00,23.0,23.0,-100.00,SSW,196,1.0,4.0,100,-99.99,,,0.00,0.000000,,2013-02-02 14:01:00,
2013-02-02 07:22:00,23.0,23.0,-100.00,SW,233,1.0,4.0,98,0.00,,,0.00,0.000000,,2013-02-02 14:22:00,
2013-02-02 07:33:00,23.0,23.0,-100.00,SW,233,1.0,4.0,98,0.00,,,0.00,0.000000,,2013-02-02 14:33:00,
2013-02-02 07:42:00,23.0,23.0,-100.00,SW,233,1.0,4.0,98,0.00,,,0.00,0.000000,,2013-02-02 14:42:00,
2013-02-02 07:52:00,23.0,23.0,-100.00,SW,233,1.0,4.0,98,0.00,,,0.00,0.000000,,2013-02-02 14:52:00,
2013-02-02 08:02:00,23.0,23.0,-100.00,SW,233,1.0,4.0,98,0.00,,,0.00,0.000000,,2013-02-02 15:02:00,
2013-02-02 08:33:00,24.0,23.0,-100.00,SSW,207,1.0,5.0,97,-99.99,,,0.00,0.000000,,2013-02-02 15:33:00,
2013-02-02 08:42:00,24.0,23.0,-100.00,SSW,207,1.0,5.0,97,-99.99,,,0.00,0.000000,,2013-02-02 15:42:00,
2013-02-02 08:52:00,24.0,23.0,-100.00,SSW,207,1.0,5.0,97,-99.99,,,0.00,0.000000,,2013-02-02 15:52:00,
2013-02-02 09:01:00,24.0,23.0,-100.00,SSW,207,1.0,5.0,97,-99.99,,,0.00,0.000000,,2013-02-02 16:01:00,
2013-02-02 09:23:00,25.0,24.0,-100.00,NW,306,1.0,5.0,94,-99.99,,,0.00,5.000000,,2013-02-02 16:23:00,
2013-02-02 09:32:00,25.0,24.0,-100.00,NW,306,1.0,5.0,94,-99.99,,,0.00,5.000000,,2013-02-02 16:32:00,
2013-02-02 09:42:00,25.0,24.0,-100.00,NW,306,1.0,5.0,94,-99.99,,,0.00,5.000000,,2013-02-02 16:42:00,
2013-02-02 09:52:00,25.0,24.0,-100.00,NW,306,1.0,5.0,94,-99.99,,,0.00,5.000000,,2013-02-02 16:52:00,
2013-02-02 10:02:00,25.0,24.0,-100.00,NW,306,1.0,5.0,94,-99.99,,,0.00,5.000000,,2013-02-02 17:02:00,
2013-02-02 10:23:00,28.0,25.0,-100.00,North,9,0.0,3.0,87,0.00,,,0.00,14.000000,,2013-02-02 17:23:00,
2013-02-02 10:33:00,28.0,25.0,-100.00,North,9,0.0,3.0,87,0.00,,,0.00,14.000000,,2013-02-02 17:33:00,
2013-02-02 10:42:00,28.0,25.0,-100.00,North,9,0.0,3.0,87,0.00,,,0.00,14.000000,,2013-02-02 17:42:00,
2013-02-02 10:52:00,28.0,25.0,-100.00,North,9,0.0,3.0,87,0.00,,,0.00,14.000000,,2013-02-02 17:52:00,
2013-02-02 11:02:00,28.0,25.0,-100.00,North,9,0.0,3.0,87,0.00,,,0.00,14.000000,,2013-02-02 18:02:00,
2013-02-02 11:32:00,33.0,27.0,-100.00,WSW,242,1.0,4.0,78,0.00,,,0.00,35.000000,,2013-02-02 18:32:00,
2013-02-02 11:42:00,33.0,27.0,-100.00,WSW,242,1.0,4.0,78,0.00,,,0.00,35.000000,,2013-02-02 18:42:00,
2013-02-02 11:52:00,33.0,27.0,-100.00,WSW,242,1.0,4.0,78,0.00,,,0.00,35.000000,,2013-02-02 18:52:00,
2013-02-02 12:01:00,33.0,27.0,-100.00,WSW,242,1.0,4.0,78,0.00,,,0.00,35.000000,,2013-02-02 19:01:00,
2013-02-02 12:22:00,33.0,28.0,-100.00,West,273,0.0,5.0,80,-99.99,,,0.00,39.000000,,2013-02-02 19:22:00,
2013-02-02 12:32:00,33.0,28.0,-100.00,West,273,0.0,5.0,80,-99.99,,,0.00,39.000000,,2013-02-02 19:32:00,
2013-02-02 12:42:00,33.0,28.0,-100.00,West,273,0.0,5.0,80,-99.99,,,0.00,39.000000,,2013-02-02 19:42:00,
2013-02-02 12:52:00,33.0,28.0,-100.00,West,273,0.0,5.0,80,-99.99,,,0.00,39.000000,,2013-02-02 19:52:00,
2013-02-02 13:01:00,33.0,28.0,-100.00,West,273,0.0,5.0,80,-99.99,,,0.00,39.000000,,2013-02-02 20:01:00,
2013-02-02 13:32:00,33.0,28.0,-100.00,West,264,1.0,4.0,80,-99.99,,,0.00,42.000000,,2013-02-02 20:32:00,
2013-02-02 13:42:00,33.0,28.0,-100.00,West,264,1.0,4.0,80,-99.99,,,0.00,42.000000,,2013-02-02 20:42:00,
2013-02-02 13:52:00,33.0,28.0,-100.00,West,264,1.0,4.0,80,-99.99,,,0.00,42.000000,,2013-02-02 20:52:00,
2013-02-02 14:01:00,33.0,28.0,-100.00,West,264,1.0,4.0,80,-99.99,,,0.00,42.000000,,2013-02-02 21:01:00,
2013-02-02 14:32:00,32.0,26.0,-100.00,NNW,331,0.0,4.0,78,0.00,,,0.00,38.000000,,2013-02-02 21:32:00,
2013-02-02 14:42:00,32.0,26.0,-100.00,NNW,331,0.0,4.0,78,0.00,,,0.00,38.000000,,2013-02-02 21:42:00,
2013-02-02 14:52:00,32.0,26.0,-100.00,NNW,331,0.0,4.0,78,0.00,,,0.00,38.000000,,2013-02-02 21:52:00,
2013-02-02 15:01:00,32.0,26.0,-100.00,NNW,331,0.0,4.0,78,0.00,,,0.00,38.000000,,2013-02-02 22:01:00,
2013-02-02 15:32:00,33.0,28.0,-100.00,NW,313,1.0,4.0,81,0.00,,,0.00,30.000000,,2013-02-02 22:32:00,
2013-02-02 15:42:00,33.0,28.0,-100.00,NW,313,1.0,4.0,81,0.00,,,0.00,30.000000,,2013-02-02 22:42:00,
2013-02-02 15:52:00,33.0,28.0,-100.00,NW,313,1.0,4.0,81,0.00,,,0.00,30.000000,,2013-02-02 22:52:00,
2013-02-02 16:01:00,33.0,28.0,-100.00,NW,313,1.0,4.0,81,0.00,,,0.00,30.000000,,2013-02-02 23:01:00,
2013-02-02 16:32:00,31.0,27.0,-100.00,NNW,335,1.0,4.0,84,0.00,,,0.00,22.000000,,2013-02-02 23:32:00,
2013-02-02 16:42:00,31.0,27.0,-100.00,NNW,335,1.0,4.0,84,0.00,,,0.00,22.000000,,2013-02-02 23:42:00,
2013-02-02 16:52:00,31.0,27.0,-100.00,NNW,335,1.0,4.0,84,0.00,,,0.00,22.000000,,2013-02-02 23:52:00,
2013-02-02 17:01:00,31.0,27.0,-100.00,NNW,335,1.0,4.0,84,0.00,,,0.00,22.000000,,2013-02-03 00:01:00,
2013-02-02 17:22:00,29.0,27.0,-100.00,North,358,1.0,4.0,91,0.00,,,0.00,10.000000,,2013-02-03 00:22:00,
2013-02-02 17:32:00,29.0,27.0,-100.00,North,358,1.0,4.0,91,0.00,,,0.00,10.000000,,2013-02-03 00:32:00,
2013-02-02 17:42:00,29.0,27.0,-100.00,North,358,1.0,4.0,91,0.00,,,0.00,10.000000,,2013-02-03 00:42:00,
2013-02-02 17:52:00,29.0,27.0,-100.00,North,358,1.0,4.0,91,0.00,,,0.00,10.000000,,2013-02-03 00:52:00,
2013-02-02 18:01:00,29.0,27.0,-100.00,North,358,1.0,4.0,91,0.00,,,0.00,10.000000,,2013-02-03 01:01:00,
2013-02-02 18:32:00,27.0,26.0,-100.00,NE,42,0.0,3.0,95,0.00,,,0.00,1.000000,,2013-02-03 01:32:00,
2013-02-02 18:42:00,27.0,26.0,-100.00,NE,42,0.0,3.0,95,0.00,,,0.00,1.000000,,2013-02-03 01:42:00,
2013-02-02 18:52:00,27.0,26.0,-100.00,NE,42,0.0,3.0,95,0.00,,,0.00,1.000000,,2013-02-03 01:52:00,
2013-02-02 19:01:00,27.0,26.0,-100.00,NE,42,0.0,3.0,95,0.00,,,0.00,1.000000,,2013-02-03 02:01:00,
2013-02-02 19:32:00,24.0,24.0,-100.00,SE,129,0.0,2.0,99,0.00,,,0.00,0.000000,,2013-02-03 02:32:00,
2013-02-02 19:42:00,24.0,24.0,-100.00,SE,129,0.0,2.0,99,0.00,,,0.00,0.000000,,2013-02-03 02:42:00,
2013-02-02 19:52:00,24.0,24.0,-100.00,SE,129,0.0,2.0,99,0.00,,,0.00,0.000000,,2013-02-03 02:52:00,
2013-02-02 20:01:00,24.0,24.0,-100.00,SE,129,0.0,2.0,99,0.00,,,0.00,0.000000,,2013-02-03 03:01:00,
2013-02-02 20:32:00,21.0,21.0,-100.00,East,83,0.0,3.0,100,0.00,,,0.00,0.000000,,2013-02-03 03:32:00,
2013-02-02 20:42:00,21.0,21.0,-100.00,East,83,0.0,3.0,100,0.00,,,0.00,0.000000,,2013-02-03 03:42:00,
2013-02-02 20:52:00,21.0,21.0,-100.00,East,83,0.0,3.0,100,0.00,,,0.00,0.000000,,2013-02-03 03:52:00,
2013-02-02 21:01:00,21.0,21.0,-100.00,East,83,0.0,3.0,100,0.00,,,0.00,0.000000,,2013-02-03 04:01:00,
2013-02-02 21:03:00,20.0,20.0,-100.00,South,179,1.0,2.0,100,0.00,,,0.00,0.000000,,2013-02-03 04:03:00,
2013-02-02 21:22:00,20.0,20.0,-100.00,South,179,1.0,2.0,100,0.00,,,0.00,0.000000,,2013-02-03 04:22:00,
2013-02-02 21:32:00,20.0,20.0,-100.00,South,179,1.0,2.0,100,0.00,,,0.00,0.000000,,2013-02-03 04:32:00,
2013-02-02 21:42:00,20.0,20.0,-100.00,South,179,1.0,2.0,100,0.00,,,0.00,0.000000,,2013-02-03 04:42:00,
2013-02-02 21:52:00,20.0,20.0,-100.00,South,179,1.0,2.0,100,0.00,,,0.00,0.000000,,2013-02-03 04:52:00,
2013-02-02 22:32:00,20.0,20.0,-100.00,West,259,1.0,5.0,98,0.00,,,0.00,0.000000,,2013-02-03 05:32:00,
2013-02-02 22:42:00,20.0,20.0,-100.00,West,259,1.0,5.0,98,0.00,,,0.00,0.000000,,2013-02-03 05:42:00,
2013-02-02 22:52:00,20.0,20.0,-100.00,West,259,1.0,5.0,98,0.00,,,0.00,0.000000,,2013-02-03 05:52:00,
2013-02-02 23:02:00,20.0,20.0,-100.00,West,259,1.0,5.0,98,0.00,,,0.00,0.000000,,2013-02-03 06:02:00,
2013-02-02 23:21:00,19.0,18.0,-100.00,SE,139,1.0,5.0,95,0.00,,,0.00,0.000000,,2013-02-03 06:21:00,
2013-02-02 23:32:00,19.0,18.0,-100.00,SE,139,1.0,5.0,95,0.00,,,0.00,0.000000,,2013-02-03 06:32:00,
2013-02-02 23:42:00,19.0,18.0,-100.00,SE,139,1.0,5.0,95,0.00,,,0.00,0.000000,,2013-02-03 06:42:00,
2013-02-02 23:52:00,19.0,18.0,-100.00,SE,139,1.0,5.0,95,0.00,,,0.00,0.000000,,2013-02-03 06:52:00,